📊 Raw Sensor Data
Showing records 41101 to 41125 of 84,976 total
| ID | Distance (ft) | Battery V | Battery A | Int Temp (°F) | Int Humid (%) | Ext Temp (°F) | Solar V | RSSI | SNR | Time Stamp |
|---|---|---|---|---|---|---|---|---|---|---|
| 43888 | 14.5 | 3.97 | -5 | 67 | 47 | 68 | 0.00 | -69 | 8 | 06/18/2025 11:15 PM |
| 43887 | 14.5 | 3.88 | -5 | 67 | 47 | 68 | 0.00 | -70 | 8 | 06/18/2025 11:00 PM |
| 43886 | 14.5 | 3.88 | -5 | 68 | 48 | 68 | 0.00 | -69 | 8 | 06/18/2025 10:45 PM |
| 43885 | 14.5 | 3.88 | -5 | 69 | 48 | 70 | 0.00 | -69 | 8 | 06/18/2025 10:30 PM |
| 43884 | 14.5 | 3.88 | -5 | 69 | 49 | 69 | 0.00 | -69 | 8 | 06/18/2025 10:15 PM |
| 43883 | 14.5 | 3.88 | -5 | 71 | 50 | 70 | 0.00 | -69 | 8 | 06/18/2025 10:00 PM |
| 43882 | 14.5 | 3.97 | -5 | 72 | 51 | 72 | 0.00 | -72 | 7 | 06/18/2025 09:45 PM |
| 43881 | 14.5 | 3.97 | -5 | 73 | 52 | 73 | 0.10 | -70 | 7 | 06/18/2025 09:30 PM |
| 43880 | 14.5 | 3.89 | -5 | 75 | 54 | 74 | 0.00 | -70 | 8 | 06/18/2025 09:15 PM |
| 43879 | 15.1 | 3.98 | -5 | 77 | 56 | 75 | 0.00 | -71 | 7 | 06/18/2025 09:00 PM |
| 43878 | 15.1 | 3.89 | -5 | 80 | 58 | 76 | 0.70 | -70 | 7 | 06/18/2025 08:45 PM |
| 43877 | 15.2 | 3.96 | -10 | 85 | 58 | 78 | 3.20 | -70 | 7 | 06/18/2025 08:30 PM |
| 43876 | 15.2 | 3.99 | 0 | 91 | 56 | 84 | 4.60 | -69 | 7 | 06/18/2025 08:15 PM |
| 43875 | 15.2 | 4.00 | 0 | 96 | 55 | 89 | 4.60 | -70 | 8 | 06/18/2025 08:00 PM |
| 43874 | 15.3 | 4.01 | 5 | 100 | 53 | 92 | 4.50 | -71 | 7 | 06/18/2025 07:45 PM |
| 43873 | 15.3 | 4.02 | 8 | 103 | 52 | 98 | 4.60 | -69 | 8 | 06/18/2025 07:30 PM |
| 43872 | 15.3 | 4.03 | -9 | 104 | 52 | 98 | 4.60 | -70 | 8 | 06/18/2025 07:15 PM |
| 43871 | 15.3 | 3.96 | 13 | 106 | 51 | 99 | 4.60 | -70 | 8 | 06/18/2025 07:00 PM |
| 43870 | 15.3 | 3.97 | 0 | 106 | 51 | 98 | 5.10 | -70 | 8 | 06/18/2025 06:45 PM |
| 43869 | 15.3 | 3.97 | 0 | 106 | 51 | 95 | 5.10 | -70 | 8 | 06/18/2025 06:30 PM |
| 43868 | 15.3 | 4.08 | 0 | 108 | 50 | 96 | 5.10 | -71 | 8 | 06/18/2025 06:15 PM |
| 43867 | 15.3 | 3.97 | 0 | 109 | 50 | 100 | 5.10 | -71 | 7 | 06/18/2025 06:00 PM |
| 43866 | 15.3 | 3.97 | 0 | 109 | 49 | 100 | 5.10 | -71 | 8 | 06/18/2025 05:45 PM |
| 43865 | 15.3 | 3.97 | 0 | 109 | 49 | 99 | 5.10 | -70 | 8 | 06/18/2025 05:30 PM |
| 43864 | 15.3 | 3.97 | 0 | 110 | 48 | 98 | 5.10 | -71 | 7 | 06/18/2025 05:15 PM |